Hourly Weather Kizliv

Today, 27 July, Tuesday

Time Temperature Precipitation Wind Pressure Humidity
00:00 +19°C° 0 mm 3 mps 740 mmHg 86%
01:00 +19°C° 0 mm 3 mps 740 mmHg 86%
02:00 +19°C° 0 mm 3 mps 740 mmHg 86%
03:00 +19°C° 0.3 mm 3 mps 740 mmHg 87%
04:00 +19°C° 0.3 mm 3 mps 740 mmHg 87%
05:00 +19°C° 0.3 mm 3 mps 740 mmHg 87%
06:00 +21°C° 0.1 mm 3 mps 740 mmHg 84%
07:00 +22°C° 0.1 mm 3 mps 740 mmHg 80%
08:00 +25°C° 0.1 mm 4 mps 740 mmHg 76%
09:00 +26°C° 0 mm 3 mps 740 mmHg 73%
10:00 +26°C° 0 mm 3 mps 740 mmHg 70%
11:00 +27°C° 0 mm 3 mps 740 mmHg 67%
12:00 +28°C° 0 mm 3 mps 740 mmHg 63%
13:00 +29°C° 0 mm 3 mps 740 mmHg 60%
14:00 +32°C° 0 mm 4 mps 740 mmHg 56%
15:00 +31°C° 0 mm 3 mps 740 mmHg 58%
16:00 +30°C° 0 mm 2 mps 740 mmHg 60%
17:00 +30°C° 0 mm 2 mps 739 mmHg 62%
18:00 +28°C° 0.3 mm 2 mps 739 mmHg 70%
19:00 +25°C° 0.3 mm 2 mps 739 mmHg 78%
20:00 +23°C° 0.3 mm 2 mps 739 mmHg 86%
21:00 +23°C° 0.4 mm 2 mps 739 mmHg 87%
22:00 +21°C° 0.4 mm 2 mps 740 mmHg 89%
23:00 +22°C° 0.4 mm 1 mps 740 mmHg 90%

Tomorrow, 28 July, Wednesday

Time Temperature Precipitation Wind Pressure Humidity
00:00 +22°C° 0.1 mm 1 mps 740 mmHg 90%
01:00 +20°C° 0.1 mm 2 mps 740 mmHg 91%
02:00 +20°C° 0.1 mm 2 mps 740 mmHg 92%
03:00 +20°C° 0 mm 2 mps 740 mmHg 91%
04:00 +19°C° 0 mm 2 mps 740 mmHg 91%
05:00 +19°C° 0 mm 2 mps 740 mmHg 91%
06:00 +22°C° 0 mm 1 mps 739 mmHg 86%
07:00 +23°C° 0 mm 1 mps 739 mmHg 82%
08:00 +23°C° 0 mm 0 mps 739 mmHg 77%
09:00 +26°C° 0 mm 1 mps 739 mmHg 71%
10:00 +28°C° 0 mm 1 mps 739 mmHg 66%
11:00 +29°C° 0 mm 2 mps 739 mmHg 60%
12:00 +30°C° 0 mm 2 mps 739 mmHg 58%
13:00 +31°C° 0 mm 2 mps 739 mmHg 55%
14:00 +32°C° 0 mm 2 mps 739 mmHg 52%
15:00 +31°C° 0.4 mm 3 mps 738 mmHg 57%
16:00 +30°C° 0.4 mm 3 mps 738 mmHg 61%
17:00 +29°C° 0.4 mm 4 mps 737 mmHg 65%
18:00 +27°C° 0.6 mm 3 mps 737 mmHg 73%
19:00 +24°C° 0.6 mm 3 mps 737 mmHg 80%
20:00 +21°C° 0.6 mm 2 mps 737 mmHg 88%
21:00 +21°C° 0.2 mm 2 mps 737 mmHg 89%
22:00 +20°C° 0.2 mm 2 mps 737 mmHg 90%
23:00 +20°C° 0.2 mm 2 mps 738 mmHg 91%

Day after tomorrow, 29 July, Thursday

Time Temperature Precipitation Wind Pressure Humidity
00:00 +20°C° 0 mm 2 mps 738 mmHg 92%
01:00 +20°C° 0 mm 3 mps 737 mmHg 93%
02:00 +19°C° 0 mm 3 mps 737 mmHg 93%
03:00 +19°C° 0 mm 4 mps 738 mmHg 94%
04:00 +19°C° 0 mm 4 mps 738 mmHg 95%
05:00 +19°C° 0 mm 5 mps 738 mmHg 95%
06:00 +20°C° 0 mm 5 mps 738 mmHg 93%
07:00 +20°C° 0 mm 4 mps 739 mmHg 91%
08:00 +21°C° 0 mm 4 mps 739 mmHg 88%
09:00 +22°C° 0 mm 4 mps 739 mmHg 81%
10:00 +25°C° 0 mm 4 mps 739 mmHg 73%
11:00 +26°C° 0 mm 4 mps 740 mmHg 66%
12:00 +27°C° 0 mm 4 mps 740 mmHg 63%
13:00 +27°C° 0 mm 3 mps 740 mmHg 61%
14:00 +28°C° 0 mm 3 mps 739 mmHg 58%
15:00 +28°C° 0.1 mm 3 mps 739 mmHg 60%
16:00 +28°C° 0.1 mm 3 mps 739 mmHg 63%
17:00 +27°C° 0.1 mm 3 mps 739 mmHg 65%
18:00 +26°C° 0.1 mm 2 mps 739 mmHg 70%
19:00 +24°C° 0.1 mm 1 mps 739 mmHg 75%
20:00 +23°C° 0.1 mm 1 mps 739 mmHg 80%
21:00 +22°C° 0 mm 1 mps 739 mmHg 81%
22:00 +22°C° 0 mm 1 mps 739 mmHg 82%
23:00 +20°C° 0 mm 2 mps 739 mmHg 84%

30 July, Friday

Time Temperature Precipitation Wind Pressure Humidity
00:00 +21°C° 0 mm 1 mps 739 mmHg 85%
01:00 +20°C° 0 mm 1 mps 739 mmHg 86%
02:00 +20°C° 0 mm 1 mps 739 mmHg 87%
03:00 +19°C° 0 mm 2 mps 739 mmHg 88%
04:00 +19°C° 0 mm 2 mps 739 mmHg 89%
05:00 +18°C° 0 mm 2 mps 739 mmHg 90%
06:00 +20°C° 0 mm 2 mps 739 mmHg 85%
07:00 +23°C° 0 mm 2 mps 739 mmHg 81%
08:00 +25°C° 0 mm 2 mps 739 mmHg 76%
09:00 +26°C° 0 mm 3 mps 738 mmHg 69%
10:00 +28°C° 0 mm 3 mps 738 mmHg 63%
11:00 +29°C° 0 mm 3 mps 738 mmHg 56%
12:00 +30°C° 0 mm 3 mps 738 mmHg 54%
13:00 +30°C° 0 mm 3 mps 737 mmHg 51%
14:00 +32°C° 0 mm 4 mps 737 mmHg 48%
15:00 +31°C° 0 mm 3 mps 737 mmHg 52%
16:00 +30°C° 0 mm 3 mps 736 mmHg 55%
17:00 +30°C° 0 mm 3 mps 735 mmHg 59%
18:00 +28°C° 0.1 mm 4 mps 735 mmHg 64%
19:00 +27°C° 0.1 mm 4 mps 735 mmHg 69%
20:00 +25°C° 0.1 mm 5 mps 735 mmHg 75%
21:00 +22°C° 0.3 mm 4 mps 735 mmHg 80%
22:00 +21°C° 0.3 mm 3 mps 735 mmHg 84%
23:00 +21°C° 0.3 mm 1 mps 736 mmHg 89%

31 July, Saturday

Time Temperature Precipitation Wind Pressure Humidity
00:00 +19°C° 0.1 mm 2 mps 736 mmHg 91%
01:00 +19°C° 0.1 mm 2 mps 736 mmHg 93%
02:00 +19°C° 0.1 mm 2 mps 736 mmHg 94%
03:00 +19°C° 0.2 mm 2 mps 736 mmHg 95%
04:00 +19°C° 0.2 mm 2 mps 736 mmHg 96%
05:00 +19°C° 0.2 mm 2 mps 736 mmHg 96%
06:00 +20°C° 0 mm 2 mps 737 mmHg 91%
07:00 +21°C° 0 mm 2 mps 737 mmHg 85%
08:00 +21°C° 0 mm 2 mps 737 mmHg 80%
09:00 +24°C° 0 mm 3 mps 738 mmHg 70%
10:00 +25°C° 0 mm 3 mps 738 mmHg 61%
11:00 +26°C° 0 mm 3 mps 738 mmHg 51%
12:00 +26°C° 0 mm 3 mps 738 mmHg 50%
13:00 +27°C° 0 mm 3 mps 738 mmHg 49%
14:00 +27°C° 0 mm 2 mps 738 mmHg 48%
15:00 +27°C° 0 mm 2 mps 738 mmHg 48%
16:00 +28°C° 0 mm 2 mps 737 mmHg 49%
17:00 +28°C° 0 mm 2 mps 737 mmHg 49%
18:00 +26°C° 0 mm 1 mps 737 mmHg 55%
19:00 +24°C° 0 mm 1 mps 737 mmHg 60%
20:00 +23°C° 0 mm 1 mps 737 mmHg 66%
21:00 +22°C° 0 mm 1 mps 737 mmHg 68%
22:00 +20°C° 0 mm 2 mps 737 mmHg 70%
23:00 +20°C° 0 mm 2 mps 737 mmHg 73%

1 August, Sunday

Time Temperature Precipitation Wind Pressure Humidity
00:00 +19°C° 0 mm 2 mps 737 mmHg 75%
01:00 +19°C° 0 mm 2 mps 737 mmHg 77%
02:00 +19°C° 0 mm 2 mps 737 mmHg 80%
03:00 +18°C° 0.1 mm 2 mps 737 mmHg 82%
04:00 +18°C° 0.1 mm 2 mps 737 mmHg 85%
05:00 +18°C° 0.1 mm 3 mps 736 mmHg 88%
06:00 +20°C° 0 mm 3 mps 736 mmHg 84%
07:00 +21°C° 0 mm 4 mps 736 mmHg 80%
08:00 +23°C° 0 mm 5 mps 736 mmHg 77%
09:00 +25°C° 0 mm 5 mps 736 mmHg 74%
10:00 +26°C° 0 mm 6 mps 736 mmHg 71%
11:00 +27°C° 0 mm 6 mps 735 mmHg 68%
12:00 +28°C° 0 mm 6 mps 735 mmHg 66%
13:00 +29°C° 0 mm 7 mps 734 mmHg 63%
14:00 +30°C° 0 mm 7 mps 734 mmHg 61%
15:00 +30°C° 0 mm 7 mps 734 mmHg 62%
16:00 +30°C° 0 mm 7 mps 734 mmHg 63%
17:00 +30°C° 0 mm 6 mps 733 mmHg 64%
18:00 +29°C° 0 mm 6 mps 733 mmHg 66%
19:00 +28°C° 0 mm 6 mps 732 mmHg 69%
20:00 +26°C° 0 mm 6 mps 732 mmHg 71%
21:00 +26°C° 0.3 mm 7 mps 732 mmHg 72%
22:00 +24°C° 0.3 mm 7 mps 733 mmHg 74%
23:00 +24°C° 0.3 mm 7 mps 733 mmHg 76%
Show more